Weather History for Rutland, VT

Change the Weather History Date:

Sunday, October 13, 2013

  Actual Average Record
Temperature  
Mean Temperature 56 °F -  
Max Temperature 64 °F - 80 °F (1954)
Min Temperature 48 °F - 24 °F (1951)
Degree Days  
Heating Degree Days 9    
Month to date heating degree days 130  
Since 1 July heating degree days 461  
Cooling Degree Days 0    
Month to date cooling degree days 0  
Year to date cooling degree days 449  
Growing Degree Days 6 (Base 50)    
Moisture  
Dew Point 44 °F    
Average Humidity 65    
Maximum Humidity 86    
Minimum Humidity 44    
Precipitation  
Precipitation 0.00 in - 0.88 in (1990)
Month to date precipitation 0.28  
Year to date precipitation 20.18  
Sea Level Pressure  
Sea Level Pressure 30.38 in    
Wind  
Wind Speed 10 mph (SE)    
Max Wind Speed 17 mph    
Max Gust Speed 20 mph    
Visibility 10 miles    
Events      
T = Trace of Precipitation, MM = Missing Value Source: NWS Daily Summary

Daily Weather History Graph

Daily Weather History Graph

Search for Another Location

Airport:

Trip Planner

Search our weather history database for the weather conditions in past years. The results will help you decide how hot, cold, wet, or windy it might be!

Date:

Astronomy

Oct. 13, 2013 Rise Set
Actual Time 7:03 AM EDT 6:11 PM EDT
Civil Twilight 6:34 AM EDT 6:40 PM EDT
Nautical Twilight 6:01 AM EDT 7:13 PM EDT
Astronomical Twilight 5:28 AM EDT 7:46 PM EDT
Moon 3:09 PM EDT (10/13) 1:00 AM EDT (10/13)
Length of Visible Light 12h 05m
Length of Day
11h 07m
Waxing Gibbous, 69% of the Moon is Illuminated
Oct 13
Waxing Gibbous
Oct 18
Full
Oct 26
Last Quarter
Nov 3
New
Nov 10
First Quarter

Hourly Weather History & Observations

Time (EDT) Temp. Dew Point Humidity Pressure Visibility Wind Dir Wind Speed Gust Speed Precip Events Conditions
12:15 AM 53.6 °F 46.4 °F 77% 30.38 in 10.0 mi SE 9.2 mph - N/A   Overcast
12:35 AM 53.6 °F 46.4 °F 77% 30.38 in 10.0 mi SE 8.1 mph - N/A   Overcast
12:55 AM 53.6 °F 46.4 °F 77% 30.39 in 10.0 mi SE 6.9 mph - N/A   Overcast
1:15 AM 51.8 °F 46.4 °F 82% 30.39 in 10.0 mi SE 6.9 mph - N/A   Overcast
1:35 AM 51.8 °F 46.4 °F 82% 30.39 in 10.0 mi SE 8.1 mph - N/A   Overcast
1:55 AM 51.8 °F 46.4 °F 82% 30.38 in 10.0 mi SE 6.9 mph - N/A   Overcast
2:15 AM 51.8 °F 46.4 °F 82% 30.39 in 10.0 mi SSE 10.4 mph - N/A   Overcast
2:35 AM 51.8 °F 46.4 °F 82% 30.39 in 10.0 mi ESE 6.9 mph - N/A   Overcast
2:55 AM 51.8 °F 46.4 °F 82% 30.39 in 10.0 mi SSE 3.5 mph - N/A   Overcast
3:15 AM 51.8 °F 46.4 °F 82% 30.38 in 10.0 mi SE 9.2 mph - N/A   Overcast
3:35 AM 51.8 °F 46.4 °F 82% 30.38 in 10.0 mi SE 8.1 mph - N/A   Overcast
3:55 AM 51.8 °F 46.4 °F 82% 30.39 in 10.0 mi SE 9.2 mph - N/A   Overcast
4:15 AM 50.0 °F 46.4 °F 87% 30.39 in 10.0 mi SSE 5.8 mph - N/A   Overcast
4:35 AM 51.8 °F 46.4 °F 82% 30.39 in 10.0 mi SE 5.8 mph - N/A   Overcast
4:55 AM 51.8 °F 44.6 °F 76% 30.39 in 10.0 mi SE 5.8 mph - N/A   Overcast
5:15 AM 51.8 °F 44.6 °F 76% 30.39 in 10.0 mi SSE 5.8 mph - N/A   Overcast
5:35 AM 51.8 °F 44.6 °F 76% 30.40 in 10.0 mi SE 6.9 mph - N/A   Overcast
5:55 AM 51.8 °F 44.6 °F 76% 30.40 in 10.0 mi SE 8.1 mph - N/A   Overcast
6:15 AM 51.8 °F 44.6 °F 76% 30.40 in 10.0 mi SE 6.9 mph - N/A   Overcast
6:35 AM 50.0 °F 42.8 °F 76% 30.40 in 10.0 mi SSE 4.6 mph - N/A   Scattered Clouds
6:55 AM 50.0 °F 42.8 °F 76% 30.40 in 10.0 mi SSE 4.6 mph - N/A   Clear
7:15 AM 48.2 °F 42.8 °F 82% 30.41 in 10.0 mi SSE 6.9 mph - N/A   Clear
7:35 AM 48.2 °F 42.8 °F 82% 30.40 in 10.0 mi SSE 6.9 mph - N/A   Clear
7:55 AM 48.2 °F 42.8 °F 82% 30.41 in 10.0 mi South 6.9 mph - N/A   Clear
8:15 AM 50.0 °F 42.8 °F 76% 30.40 in 10.0 mi South 10.4 mph - N/A   Clear
8:35 AM 50.0 °F 42.8 °F 76% 30.41 in 10.0 mi South 8.1 mph - N/A   Clear
8:55 AM 51.8 °F 42.8 °F 71% 30.41 in 10.0 mi South 8.1 mph - N/A   Clear
9:15 AM 51.8 °F 39.2 °F 62% 30.42 in 10.0 mi SSE 9.2 mph - N/A   Clear
9:35 AM 53.6 °F 39.2 °F 58% 30.43 in 10.0 mi ESE 8.1 mph - N/A   Clear
9:55 AM 53.6 °F 39.2 °F 58% 30.43 in 10.0 mi SE 8.1 mph - N/A   Clear
10:15 AM 55.4 °F 39.2 °F 54% 30.42 in 10.0 mi ESE 10.4 mph 16.1 mph N/A   Clear
10:35 AM 55.4 °F 35.6 °F 47% 30.42 in 10.0 mi ESE 13.8 mph - N/A   Clear
10:55 AM 57.2 °F 37.4 °F 48% 30.42 in 10.0 mi ESE 9.2 mph - N/A   Clear
11:15 AM 57.2 °F 37.4 °F 48% 30.42 in 10.0 mi SSW 4.6 mph - N/A   Clear
11:35 AM 59.0 °F 39.2 °F 48% 30.41 in 10.0 mi SSE 4.6 mph - N/A   Clear
11:55 AM 60.8 °F 41.0 °F 48% 30.41 in 10.0 mi ESE 8.1 mph - N/A   Clear
12:15 PM 60.8 °F 41.0 °F 48% 30.40 in 10.0 mi Calm Calm - N/A   Clear
12:35 PM 62.6 °F 42.8 °F 48% 30.39 in 10.0 mi East 6.9 mph - N/A   Clear
12:55 PM 62.6 °F 42.8 °F 48% 30.38 in 10.0 mi SE 9.2 mph - N/A   Clear
1:15 PM 62.6 °F 42.8 °F 48% 30.38 in 10.0 mi ESE 6.9 mph - N/A   Clear
1:35 PM 64.4 °F 42.8 °F 45% 30.37 in 10.0 mi SE 11.5 mph - N/A   Clear
1:55 PM 64.4 °F 42.8 °F 45% 30.36 in 10.0 mi ESE 8.1 mph - N/A   Clear
2:15 PM 64.4 °F 42.8 °F 45% 30.35 in 10.0 mi SE 12.7 mph - N/A   Clear
2:35 PM 64.4 °F 42.8 °F 45% 30.34 in 10.0 mi SE 12.7 mph 16.1 mph N/A   Clear
2:55 PM 64.4 °F 42.8 °F 45% 30.34 in 10.0 mi SE 12.7 mph - N/A   Clear
3:15 PM 64.4 °F 44.6 °F 49% 30.34 in 10.0 mi SE 13.8 mph 18.4 mph N/A   Clear
3:35 PM 64.4 °F 44.6 °F 49% 30.33 in 10.0 mi SE 12.7 mph 18.4 mph N/A   Clear
3:55 PM 64.4 °F 44.6 °F 49% 30.33 in 10.0 mi SE 15.0 mph - N/A   Clear
4:15 PM 64.4 °F 44.6 °F 49% 30.33 in 10.0 mi ESE 11.5 mph 19.6 mph N/A   Clear
4:35 PM 64.4 °F 44.6 °F 49% 30.32 in 10.0 mi SE 11.5 mph 21.9 mph N/A   Clear
4:55 PM 62.6 °F 46.4 °F 55% 30.32 in 10.0 mi SE 17.3 mph - N/A   Clear
5:15 PM 62.6 °F 44.6 °F 52% 30.33 in 10.0 mi SE 15.0 mph - N/A   Clear
5:35 PM 60.8 °F 46.4 °F 59% 30.32 in 10.0 mi ESE 11.5 mph - N/A   Clear
5:55 PM 60.8 °F 46.4 °F 59% 30.33 in 10.0 mi ESE 12.7 mph 19.6 mph N/A   Clear
6:15 PM 59.0 °F 44.6 °F 59% 30.33 in 10.0 mi ESE 12.7 mph 21.9 mph N/A   Clear
6:35 PM 57.2 °F 44.6 °F 63% 30.34 in 10.0 mi SE 13.8 mph - N/A   Clear
6:55 PM 57.2 °F 44.6 °F 63% 30.35 in 10.0 mi SE 13.8 mph 18.4 mph N/A   Clear
7:15 PM 55.4 °F 44.6 °F 67% 30.35 in 10.0 mi SE 12.7 mph - N/A   Clear
7:35 PM 55.4 °F 44.6 °F 67% 30.35 in 10.0 mi ESE 11.5 mph - N/A   Clear
7:55 PM 55.4 °F 44.6 °F 67% 30.36 in 10.0 mi SE 11.5 mph - N/A   Clear
8:15 PM 53.6 °F 44.6 °F 72% 30.36 in 10.0 mi ESE 12.7 mph - N/A   Clear
8:35 PM 53.6 °F 44.6 °F 72% 30.36 in 10.0 mi ESE 12.7 mph - N/A   Clear
8:55 PM 53.6 °F 44.6 °F 72% 30.36 in 10.0 mi ESE 12.7 mph - N/A   Clear
9:15 PM 51.8 °F 44.6 °F 76% 30.36 in 10.0 mi ESE 12.7 mph - N/A   Clear
9:35 PM 51.8 °F 44.6 °F 76% 30.36 in 10.0 mi ESE 12.7 mph 18.4 mph N/A   Clear
9:55 PM 51.8 °F 44.6 °F 76% 30.36 in 10.0 mi ESE 12.7 mph - N/A   Clear
10:15 PM 51.8 °F 44.6 °F 76% 30.36 in 10.0 mi SE 13.8 mph - N/A   Clear
10:35 PM 50.0 °F 44.6 °F 82% 30.36 in 10.0 mi SE 11.5 mph - N/A   Clear
10:55 PM 50.0 °F 44.6 °F 82% 30.36 in 10.0 mi SE 12.7 mph - N/A   Clear
11:15 PM 50.0 °F 44.6 °F 82% 30.36 in 10.0 mi SE 12.7 mph - N/A   Clear
11:35 PM 50.0 °F 44.6 °F 82% 30.36 in 10.0 mi SE 9.2 mph - N/A   Clear
11:55 PM 48.2 °F 44.6 °F 87% 30.36 in 10.0 mi SE 10.4 mph - N/A   Clear